This demonstration page uses our WeatherBlox Daily Observations layout. Learn more.

Left ArrowRight Arrow

30.21309, -93.2044

Hourly Observations for August 18, 2020

Temp ( °F °C ) Dew Point ( °F °C ) Humidity (%) Winds ( mph kmh ) Pressure ( in mb ) Visibility ( mi km ) Precip ( " mm )
12:15 am 00:15 Clear 76 24.7 69 20.4 77 77 N 3 6 29.98 1015 10 16 0.00 0.00
12:35 am 00:35 Clear 76 24.2 69 20.6 80 80 N 5 7 29.98 1015 10 16 0.00 0.00
12:55 am 00:55 Clear 75 24 69 20.6 81 81 N 3 6 29.98 1015 10 16 0.00 0.00
1:15 am 01:15 Clear 73 22.9 69 20.4 86 86 Calm 29.98 1015 10 16 0.00 0.00
1:35 am 01:35 Clear 74 23.3 69 20.3 83 83 N 5 7 29.98 1015 10 16 0.00 0.00
1:55 am 01:55 Clear 74 23.5 67 19.5 78 78 NNE 3 6 29.99 1016 10 16 0.00 0.00
2:15 am 02:15 Clear 74 23.1 67 19.6 81 81 N 5 7 29.98 1015 10 16 0.00 0.00
2:35 am 02:35 Clear 73 23 67 19.6 81 81 NE 3 6 29.98 1015 10 16 0.00 0.00
2:55 am 02:55 Clear 73 22.8 67 19.6 82 82 N 3 6 29.98 1015 10 16 0.00 0.00
3:15 am 03:15 Clear 72 22.4 67 19.6 84 84 NNW 6 9 29.97 1015 10 16 0.00 0.00
3:35 am 03:35 Clear 73 22.5 67 19.4 83 83 NNW 3 6 29.97 1015 10 16 0.00 0.00
3:55 am 03:55 Clear 73 22.5 67 19.5 83 83 NW 3 6 29.97 1015 10 16 0.00 0.00
4:15 am 04:15 Clear 71 21.8 67 19.3 86 86 NNW 5 7 29.97 1015 10 16 0.00 0.00
4:35 am 04:35 Clear 71 21.5 67 19.3 87 87 NNW 6 9 29.97 1015 10 16 0.00 0.00
4:55 am 04:55 Clear 71 21.4 67 19.5 89 89 NNW 6 9 29.97 1015 10 16 0.00 0.00
5:15 am 05:15 Clear 71 21.4 67 19.4 88 88 NNW 6 9 29.97 1015 10 16 0.00 0.00
5:35 am 05:35 Clear 70 21.3 67 19.3 88 88 NNW 6 9 29.97 1015 10 16 0.00 0.00
6:00 am 06:00 Mostly Clear 70 21 66 19 88 88 Calm 29.98 1015 10 16 0.00 0.00
6:55 am 06:55 Mostly Sunny 70 21 66 19 88 88 Calm 29.97 1015 10 16 0.00 0.00
7:55 am 07:55 Mostly Sunny 73 23 68 20 83 83 NNW 6 9 29.99 1016 10 16 0.00 0.00
8:45 am 08:45 Mostly Sunny 77 25 68 20 74 74 NNE 6 9 29.99 1016 10 16 0.00 0.00
9:55 am 09:55 Mostly Sunny 82 28 70 21 66 66 ENE 8 13 29.99 1016 10 16 0.00 0.00
10:50 am 10:50 Mostly Sunny 86 30 70 21 59 59 NE 7 11 29.99 1016 10 16 0.00 0.00
11:53 am 11:53 Mostly Sunny 88 31 70 21 55 55 NE 5 7 29.97 1015 10 16 0.00 0.00
12:47 pm 12:47 Mostly Sunny 90 32 68 20 49 49 NE 10 17 29.96 1015 10 16 0.00 0.00
1:48 pm 13:48 Mostly Sunny 91 33 66 19 44 44 NNE 9 15 29.95 1014 10 16 0.00 0.00
2:50 pm 14:50 Mostly Sunny 91 33 66 19 44 44 N 5 7 29.92 1013 10 16 0.00 0.00
3:55 pm 15:55 Mostly Sunny 93 34 66 19 41 41 NNE 5 7 29.90 1012 10 16 0.00 0.00
4:50 pm 16:50 Mostly Sunny 93 34 64 18 39 39 Calm 29.88 1012 10 16 0.00 0.00
5:50 pm 17:50 Mostly Sunny 91 33 66 19 44 44 N 7 11 29.87 1011 10 16 0.00 0.00
6:50 pm 18:50 Mostly Sunny 91 33 64 18 41 41 Calm 29.86 1011 10 16 0.00 0.00
7:50 pm 19:50 Mostly Sunny 88 31 70 21 55 55 Calm 29.86 1011 10 16 0.00 0.00
8:50 pm 20:50 Mostly Clear 86 30 70 21 59 59 Calm 29.87 1011 10 16 0.00 0.00
9:55 pm 21:55 Mostly Clear 82 28 72 22 70 70 Calm 29.89 1012 10 16 0.00 0.00
10:15 pm 22:15 Partly Cloudy 85 29.6 73 22.6 66 66 WSW 6 9 29.89 1012 10 16 0.00 0.00
10:35 pm 22:35 Partly Cloudy 82 27.7 72 22.2 72 72 NW 6 9 29.90 1013 10 16 0.00 0.00
10:55 pm 22:55 Partly Cloudy 83 28.3 73 22.6 71 71 W 7 11 29.90 1013 10 16 0.00 0.00
11:15 pm 23:15 Partly Cloudy 84 29 74 23.2 71 71 W 8 13 29.90 1013 10 16 0.00 0.00
11:35 pm 23:35 Clear 83 28.6 74 23.2 73 73 W 9 15 29.90 1013 10 16 0.00 0.00
11:55 pm 23:55 Clear 83 28.3 74 23.2 74 74 W 6 9 29.90 1013 10 16 0.00 0.00

Powered by AerisWeather